World > North America > United States > California > San Andreas  

San Andreas, CA Hourly Weather Forecast

Feedback E-mail the Weather

Quick Clicks

Weather World

24 Hour Forecast

Current Conditions - Clear. Temperature is 58°F14°C, dew point 51°F11°C, humidity 77%. Wind direction is WNW at 7 mph11 km/h with visibility of 10 mi16 km. Barometric pressure is 29.93 in1014 mb.
Today - Partly cloudy in the morning then clearing. Highs 69 to 79. Light winds becoming west up to 10 mph in the afternoon... Full Forecast
Tonight - Clear. Lows 49 to 55. Prevailing west winds up to 10 mph in the evening becoming light... Full Forecast

San Andreas Hourly Weather

24 Hour Weather Scroll
Fri, Apr 19
8:00 am
Fri, Apr 19
9:00 am
Fri, Apr 19
10:00 am
Fri, Apr 19
11:00 am
Fri, Apr 19
Noon
Fri, Apr 19
1:00 pm
Fri, Apr 19
2:00 pm
Fri, Apr 19
3:00 pm
Fri, Apr 19
4:00 pm
Fri, Apr 19
5:00 pm
Fri, Apr 19
6:00 pm
Fri, Apr 19
7:00 pm
Fri, Apr 19
8:00 pm
Fri, Apr 19
9:00 pm
Fri, Apr 19
10:00 pm
Fri, Apr 19
11:00 pm
Sat, Apr 20
Midnight
Sat, Apr 20
1:00 am
Sat, Apr 20
2:00 am
Sat, Apr 20
3:00 am
Sat, Apr 20
4:00 am
Sat, Apr 20
5:00 am
Sat, Apr 20
6:00 am
Sat, Apr 20
7:00 am
SunnyPartly Cloudy Partly Cloudy SunnySunnySunnySunnySunnySunnySunnySunnySunnyClear Clear Clear Clear Clear Cloudy Overcast Partly Cloudy Partly Cloudy Clear Clear Partly Cloudy
Sunny Partly Cloudy Partly Cloudy Sunny Sunny Sunny Sunny Sunny Sunny Sunny Sunny Sunny Clear Clear Clear Clear Clear Cloudy Overcast Partly Cloudy Partly Cloudy Clear Clear Partly Cloudy
54°F12°C 65°F18°C 68°F20°C 71°F22°C 73°F23°C 75°F24°C 76°F24°C 76°F24°C 76°F24°C 74°F24°C 70°F21°C 61°F16°C 55°F13°C 52°F11°C 51°F10°C 49°F10°C 49°F9°C 48°F9°C 48°F9°C 48°F9°C 47°F8°C 46°F8°C 47°F8°C 54°F12°C
51°F
11°C
53°F
12°C
54°F
12°C
55°F
13°C
55°F
13°C
55°F
13°C
55°F
13°C
55°F
13°C
55°F
13°C
56°F
13°C
59°F
15°C
57°F
14°C
49°F
9°C
48°F
9°C
47°F
8°C
46°F
8°C
45°F
7°C
44°F
6°C
43°F
6°C
42°F
6°C
41°F
5°C
40°F
4°C
39°F
4°C
40°F
4°C
29.94 in
1014 mb
29.91 in
1013 mb
29.91 in
1013 mb
29.91 in
1013 mb
29.91 in
1013 mb
29.88 in
1012 mb
29.88 in
1012 mb
29.88 in
1012 mb
29.88 in
1012 mb
29.88 in
1012 mb
29.88 in
1012 mb
29.88 in
1012 mb
29.88 in
1012 mb
29.91 in
1013 mb
29.94 in
1014 mb
29.94 in
1014 mb
29.94 in
1014 mb
29.94 in
1014 mb
29.94 in
1014 mb
29.94 in
1014 mb
29.94 in
1014 mb
29.97 in
1015 mb
29.97 in
1015 mb
30 in
1016 mb
88%62%58%54%52%49%48%47%48%51%61%76%89%90%90%88%87%86%84%81%79%78%77%74%
NWNWWWWWWWWNWWNWWNWWNWNNWNNENENENENEENEENENEENEENEENE
2 mph
4 km/h
2 mph
3 km/h
4 mph
6 km/h
5 mph
8 km/h
6 mph
9 km/h
6 mph
10 km/h
7 mph
11 km/h
7 mph
11 km/h
7 mph
12 km/h
6 mph
10 km/h
5 mph
9 km/h
4 mph
6 km/h
3 mph
5 km/h
4 mph
6 km/h
3 mph
5 km/h
3 mph
5 km/h
4 mph
6 km/h
3 mph
5 km/h
4 mph
6 km/h
4 mph
6 km/h
3 mph
5 km/h
4 mph
6 km/h
4 mph
6 km/h
3 mph
5 km/h
0%0%0%0%0%0%0%0%0%0%0%0%0%0%0%0%0%0%0%0%0%0%0%0%
10 mi
16 km
6 mi
10 km
6 mi
10 km
6 mi
10 km
6 mi
10 km
6 mi
10 km
6 mi
10 km
6 mi
10 km
6 mi
10 km
6 mi
10 km
6 mi
10 km
6 mi
10 km
6 mi
10 km
6 mi
10 km
6 mi
10 km
6 mi
10 km
6 mi
10 km
6 mi
10 km
6 mi
10 km
6 mi
10 km
6 mi
10 km
6 mi
10 km
6 mi
10 km
6 mi
10 km

Day/Time
Weather
Condition
Temperature
Dew Point
Pressure
Humidity
Wind Direction
Wind Speed
Prob Precip %
Visibility
POP = Probability of Precipitation. ** Indicates missing data/values from KSCK model statistics.

Trending Headlines

Trending Entertainment Headlines

San Andreas Radar Loop

Use the map search tool if you want to place a location marker on the radar map...

48 Hour API Forecast

Prob Precip % = Probability of Precipitation.

San Andreas 36 Hour Forecast

POP = Probability of Precipitation. ** Indicates missing data/values from model statistics.

E-mail the San Andreas Weather Forecast

Voice your opinion or tell us about page issues...

San Andreas CA Weather - 11:11 am

What are people saying?

Contact Us